Weather History for Fayetteville, AR

Change the Weather History Date:

Tuesday, February 19, 2013

  Actual Average Record
Temperature  
Mean Temperature 33 °F 41 °F  
Max Temperature 45 °F 52 °F 76 °F (1986)
Min Temperature 20 °F 29 °F -1 °F (1978)
Degree Days  
Heating Degree Days 32 24  
Month to date heating degree days 458 503  
Since 1 July heating degree days 2791 3097  
Moisture  
Dew Point 21 °F    
Average Humidity 65    
Maximum Humidity 92    
Minimum Humidity 37    
Precipitation  
Precipitation 0.00 in 0.11 in 2.11 in (1955)
Month to date precipitation 1.67 1.82  
Year to date precipitation 4.70 4.66  
Sea Level Pressure  
Sea Level Pressure 30.26 in    
Wind  
Wind Speed 5 mph (NNW)    
Max Wind Speed 18 mph    
Max Gust Speed 24 mph    
Visibility 10 miles    
Events      
T = Trace of Precipitation, MM = Missing Value Source: NWS Daily Summary

Daily Weather History Graph

Daily Weather History Graph

Search for Another Location

Airport:

Trip Planner

Search our weather history database for the weather conditions in past years. The results will help you decide how hot, cold, wet, or windy it might be!

Date:

Astronomy

Feb. 19, 2013 Rise Set
Actual Time 6:59 AM CST 6:02 PM CST
Civil Twilight 6:33 AM CST 6:28 PM CST
Nautical Twilight 6:03 AM CST 6:58 PM CST
Astronomical Twilight 5:33 AM CST 7:28 PM CST
Moon 12:40 PM CST (2/19) 2:25 AM CST (2/19)
Length of Visible Light 11h 55m
Length of Day
11h 03m
Waxing Gibbous, 67% of the Moon is Illuminated
Feb 19
Waxing Gibbous
Feb 25
Full
Mar 4
Last Quarter
Mar 11
New
Mar 19
First Quarter

Hourly Weather History & Observations

Time (CST) Temp. Windchill Dew Point Humidity Pressure Visibility Wind Dir Wind Speed Gust Speed Precip Events Conditions
12:53 AM 32.0 °F 28.7 °F 23.0 °F 69% 30.16 in 10.0 mi North 3.5 mph - N/A   Clear
1:53 AM 30.9 °F 25.2 °F 21.9 °F 69% 30.17 in 10.0 mi North 5.8 mph - N/A   Clear
2:53 AM 30.0 °F - 19.0 °F 64% 30.17 in 10.0 mi Calm Calm - N/A   Clear
3:53 AM 27.0 °F - 18.0 °F 69% 30.17 in 10.0 mi Calm Calm - N/A   Clear
4:53 AM 21.0 °F - 18.0 °F 88% 30.20 in 10.0 mi Calm Calm - N/A   Clear
5:53 AM 21.9 °F - 19.9 °F 92% 30.22 in 10.0 mi Calm Calm - N/A   Clear
6:53 AM 21.0 °F - 18.0 °F 88% 30.24 in 10.0 mi Calm Calm - N/A   Clear
7:53 AM 24.1 °F - 21.0 °F 88% 30.27 in 10.0 mi Calm Calm - N/A   Clear
8:53 AM 30.9 °F - 21.9 °F 69% 30.29 in 10.0 mi Calm Calm - N/A   Clear
9:53 AM 36.0 °F 28.5 °F 19.9 °F 52% 30.31 in 10.0 mi North 10.4 mph - N/A   Clear
10:53 AM 39.0 °F 32.8 °F 21.0 °F 49% 30.33 in 10.0 mi NNW 9.2 mph 17.3 mph N/A   Clear
12:53 PM 44.1 °F 37.4 °F 21.9 °F 42% 30.32 in 10.0 mi West 13.8 mph 20.7 mph N/A   Clear
1:53 PM 45.0 °F 39.7 °F 21.9 °F 40% 30.30 in 10.0 mi NW 10.4 mph - N/A   Clear
2:53 PM 45.0 °F 38.2 °F 21.0 °F 39% 30.30 in 10.0 mi NW 15.0 mph 21.9 mph N/A   Clear
3:53 PM 45.0 °F 38.2 °F 19.9 °F 37% 30.28 in 10.0 mi NNW 15.0 mph 18.4 mph N/A   Clear
4:53 PM 43.0 °F 36.4 °F 19.0 °F 38% 30.28 in 10.0 mi NNW 12.7 mph 18.4 mph N/A   Clear
6:53 PM 34.0 °F - 19.9 °F 56% 30.29 in 10.0 mi Calm Calm - N/A   Clear
7:53 PM 28.9 °F - 23.0 °F 78% 30.29 in 10.0 mi Calm Calm - N/A   Clear
8:53 PM 27.0 °F - 21.0 °F 78% 30.30 in 10.0 mi Calm Calm - N/A   Clear
9:53 PM 27.0 °F - 21.9 °F 81% 30.31 in 10.0 mi Calm Calm - N/A   Clear
10:53 PM 27.0 °F 23.0 °F 21.9 °F 81% 30.31 in 10.0 mi South 3.5 mph - N/A   Clear
11:53 PM 27.0 °F - 21.9 °F 81% 30.30 in 10.0 mi Calm Calm - N/A   Clear